Location: *
(26.5500°S, 31.4500°E)
Time: 16:50:49
(UTC+00:00)

Daily predictions for brighter satellites

Satellite Brightness Start Highest point End
(mag) Time Altitude Azimuth Time Altitude Azimuth Time Altitude Azimuth
Cosmos 1763 Rocket 4.0 16:18:22 10° S 16:23:19 41° ESE 16:28:17 10° NE
Envisat 3.2 16:19:50 10° SSE 16:24:48 48° E 16:29:41 10° N
CZ-4 R/B 2.1 16:24:19 10° SE 16:27:53 31° E 16:31:28 10° NNE
Cosmos 1943 3.3 16:22:40 10° NNW 16:28:17 90° W 16:33:58 10° SSE
CZ-3B R/B 3.7 16:26:34 10° SW 16:29:09 30° WNW 16:30:38 10° N
CZ-2C R/B 3.8 16:30:54 10° NNE 16:35:34 66° ESE 16:40:20 10° S
Cosmos 1727 Rocket 4.1 16:29:25 10° S 16:35:48 87° W 16:42:02 10° N
CSL-04 Rocket 4.3 16:33:02 10° SE 16:38:04 35° E 16:43:04 10° NNE
NOAA 12 4.2 16:34:29 10° SSE 16:39:47 87° WSW 16:45:02 10° NNW
ATLAS 3B R/B 4.0 16:33:40 10° SW 16:40:28 45° WNW 16:47:02 10° N
USA 215 3.5 16:34:41 10° SE 16:41:00 47° NE 16:47:14 10° NNW
Orbus 7S 3.0 16:40:29 10° WNW 16:44:43 56° N 16:46:34 17° E
GPS 2-14 Rocket1 4.5 16:42:08 10° WNW 16:45:30 23° NNW 16:48:42 11° NE
Cosmos 1455 3.9 16:45:40 10° SE 16:47:56 15° ESE 16:48:27 15° E
Cosmos-2242 3.4 16:47:47 10° S 16:52:02 44° E 16:56:15 10° NNE
OE (NEXTSAT) 4.5 16:48:53 10° SW 16:52:22 60° SE 16:54:33 20° ENE
Meteor 1-21 Rocket 4.4 16:48:04 10° N 16:53:43 78° W 16:59:21 10° S
CZ-4C R/B 4.1 16:48:49 10° NNE 16:54:30 20° ENE 16:59:55 10° ESE
CZ-2D R/B 4.2 16:51:14 10° SE 16:54:31 26° E 16:57:46 10° NNE
Meteor 2-1 Rocket 4.2 16:48:48 10° S 16:54:31 81° E 17:00:04 10° N
CENTAUR R/B 4.4 16:50:41 10° WSW 16:54:45 22° WNW 16:58:47 10° NNW
GPS 2-04 Rocket1 3.9 16:54:52 10° NNW 16:57:27 19° NE 16:57:48 19° NE
Cosmos 1328 3.9 16:56:23 10° N 17:00:11 50° E 17:04:03 10° SSE
EO 1 Delta rocket 4.5 16:56:44 10° S 17:03:53 81° E 17:09:23 10° N
Ariane Rocket 3.8 17:02:54 10° SE 17:07:19 29° E 17:10:27 16° NNE
Cosmos 1000 Rocket 4.5 17:03:34 10° S 17:09:47 89° W 17:15:55 10° N
Cosmos 1605 Rocket 4.0 17:04:33 10° NNE 17:10:27 55° E 17:16:27 10° SSE
Cosmos 2369 Rocket 2.2 17:04:57 10° SSW 17:10:41 66° ESE 17:15:06 17° NNE
Cosmos 1570 Rocket 4.4 17:06:32 10° SSW 17:11:47 67° WNW 17:17:01 10° N
Star 48 S/N 10024-3 4.2 17:10:47 10° W 17:12:58 79° N 17:13:28 51° ENE
ADEOS Rocket 3.1 17:07:16 10° N 17:13:53 82° WNW 17:19:54 10° SSW
CZ-2C R/B 3.7 17:18:39 24° E 17:19:04 25° ESE 17:23:17 10° SSE
Cosmos 2208 Rocket 4.4 17:14:21 10° SSW 17:19:45 68° WNW 17:25:01 10° N
CSL-04 Debris 4.2 17:14:21 10° SSE 17:19:48 87° WSW 17:25:13 10° NNW
Cosmos 1934 Rocket 4.4 17:17:06 10° NNW 17:23:26 68° W 17:29:45 10° S
BREEZE-M R/B 3.3 17:20:04 10° NW 17:25:03 62° SW 17:29:15 10° SE
Cosmos 44 Rocket 4.4 17:20:14 10° SW 17:25:09 46° WNW 17:29:54 11° N
YAOGAN 1 3.8 17:30:55 10° S 17:35:05 44° WSW 17:39:11 10° NNW
Cosmos 1354 Rocket 3.9 17:30:38 10° NNW 17:35:54 88° ENE 17:41:15 10° SSE
Cosmos 841 Rocket 4.0 17:35:08 10° SSW 17:40:13 57° WNW 17:43:58 18° N
Cosmos 968 Rocket 3.7 17:35:45 10° NNW 17:40:55 71° WSW 17:46:08 10° S
Cosmos 2263 4.1 17:36:03 10° SSW 17:41:47 89° ESE 17:44:04 38° NNE
Cosmos 1939 Rocket 3.0 17:38:09 10° S 17:42:02 70° WSW 17:44:39 20° NNW
DMSP B5D2-2 3.9 17:40:35 40° NNE 17:42:30 78° ESE 17:47:45 10° S
Cosmos 1842 Rocket 4.3 17:41:32 10° S 17:44:38 39° SE 17:44:38 39° SE
DELTA 2 R/B (1) 4.3 17:40:21 10° WNW 17:45:49 52° SSW 17:49:30 21° SE
Cosmos 1242 Rocket 4.4 17:45:04 10° NW 17:48:18 30° W 17:51:31 10° SSW
Cosmos 2100 Rocket 4.4 17:51:46 43° ESE 17:51:46 43° ESE 17:56:51 10° SSE
Cosmos 1340 Rocket 3.5 17:47:09 10° S 17:50:04 46° S 17:50:04 46° S
Cosmos 1656 Rocket 3.7 17:47:02 10° S 17:52:40 61° ESE 17:53:01 60° E
Cosmos 1943 Rocket 3.4 17:48:43 10° SW 17:53:48 38° WNW 17:57:50 15° NNW
H-2A ROCKET BODY 2.3 17:37:10 10° W 17:54:12 81° S 17:55:21 57° E
Mugunghwa Rocket 4.1 17:48:20 10° WNW 17:55:04 55° NNE 17:55:38 53° NE
ISS -1.1 18:02:07 10° WNW 18:02:59 16° WNW 18:02:59 16° WNW
Cosmos 2221 4.2 18:11:42 10° S 18:13:43 27° S 18:13:43 27° S
CZ-4C R/B 3.2 18:34:24 10° NW 18:42:45 71° WSW 18:50:20 10° SSE
CZ-2C R/B 4.4 19:00:10 26° WSW 19:00:10 26° WSW 19:03:38 10° SW
